TimeMDT,TemperatureF,Dew PointF,Humidity,Sea Level PressureIn,VisibilityMPH,Wind Direction,Wind SpeedMPH,Gust SpeedMPH,PrecipitationIn,Events,Conditions,WindDirDegrees,DateUTC
12:53 AM,46.9,32.0,56,29.88,10.0,ENE,3.5,-,N/A,,Clear,60,2013-05-07 06:53:00
1:53 AM,51.1,30.9,46,29.87,10.0,Calm,Calm,-,N/A,,Clear,0,2013-05-07 07:53:00
2:53 AM,46.9,30.9,54,29.87,10.0,Calm,Calm,-,N/A,,Clear,0,2013-05-07 08:53:00
3:53 AM,46.0,30.9,56,29.87,10.0,Calm,Calm,-,N/A,,Clear,0,2013-05-07 09:53:00
4:53 AM,45.0,32.0,60,29.88,10.0,Calm,Calm,-,N/A,,Clear,0,2013-05-07 10:53:00
5:53 AM,39.0,30.9,73,29.90,10.0,Calm,Calm,-,N/A,,Clear,0,2013-05-07 11:53:00
6:53 AM,41.0,32.0,70,29.91,10.0,Calm,Calm,-,N/A,,Clear,0,2013-05-07 12:53:00
7:53 AM,46.0,34.0,63,29.91,10.0,Calm,Calm,-,N/A,,Clear,0,2013-05-07 13:53:00
8:53 AM,50.0,34.0,54,29.92,10.0,North,3.5,-,N/A,,Clear,350,2013-05-07 14:53:00
9:53 AM,-9999,-9999,N/A,29.95,-9999.0,North,-9999.0,-,N/A,,Unknown,0,2013-05-07 15:53:00
10:53 AM,-9999,-9999,N/A,29.96,-9999.0,North,-9999.0,-,N/A,,Unknown,0,2013-05-07 16:53:00
11:53 AM,-9999,-9999,N/A,29.97,-9999.0,North,-9999.0,-,N/A,,Unknown,0,2013-05-07 17:53:00
12:53 PM,66.9,34.0,30,29.98,10.0,North,19.6,26.5,N/A,,Unknown,360,2013-05-07 18:53:00
1:53 PM,68.0,34.0,28,29.97,10.0,North,20.7,27.6,N/A,,Clear,10,2013-05-07 19:53:00
2:53 PM,68.0,34.0,28,29.98,10.0,North,18.4,29.9,N/A,,Clear,10,2013-05-07 20:53:00
3:53 PM,70.0,33.1,26,29.97,10.0,North,18.4,23.0,N/A,,Clear,350,2013-05-07 21:53:00
4:53 PM,70.0,34.0,27,29.95,10.0,North,18.4,25.3,N/A,,Clear,350,2013-05-07 22:53:00
5:53 PM,70.0,35.1,28,29.96,10.0,North,19.6,-,N/A,,Clear,360,2013-05-07 23:53:00
6:53 PM,68.0,35.1,30,29.97,10.0,North,17.3,28.8,N/A,,Partly Cloudy,350,2013-05-08 00:53:00
7:53 PM,66.0,35.1,32,29.99,10.0,North,13.8,-,N/A,,Clear,360,2013-05-08 01:53:00
8:53 PM,61.0,34.0,36,30.01,10.0,North,9.2,-,N/A,,Partly Cloudy,360,2013-05-08 02:53:00
9:53 PM,59.0,34.0,39,30.03,10.0,WNW,6.9,-,N/A,,Overcast,290,2013-05-08 03:53:00
10:53 PM,55.9,33.1,42,30.05,10.0,West,8.1,-,N/A,,Clear,270,2013-05-08 04:53:00
11:53 PM,54.0,33.1,45,30.06,10.0,WSW,8.1,-,N/A,,Clear,250,2013-05-08 05:53:00